Ouarzazate, Morocco

3:25 PM WEST on April 24, 2017 (GMT +0100)
Ouarzazate

Weather History for GMMZ - January, 2014

Change the Weather History Date:

Saturday, January 25, 2014

  Actual Average Record
Temperature  
Mean Temperature 50 °F -  
Max Temperature 67 °F 66 °F - ()
Min Temperature 33 °F 39 °F - ()
Degree Days  
Heating Degree Days 15    
Moisture  
Dew Point 21 °F    
Average Humidity 33    
Maximum Humidity 60    
Minimum Humidity 6    
Precipitation  
Precipitation 0.00 in 0.02 in - ()
Sea Level Pressure  
Sea Level Pressure 30.26 in    
Wind  
Wind Speed 2 mph ()    
Max Wind Speed 5 mph    
Max Gust Speed -    
Visibility 12.0 miles    
Events      
T = Trace of Precipitation, MM = Missing Value Source: Averaged Metar Reports

Daily Weather History Graph

Daily Weather History Graph

Search for Another Location

Airport or City:

Trip Planner

Search our weather history database for the weather conditions in past years. The results will help you decide how hot, cold, wet, or windy it might be!

Date:

Astronomy

Jan. 25, 2014 Rise Set
Actual Time 7:23 AM WET 5:56 PM WET
Civil Twilight 6:57 AM WET 6:22 PM WET
Nautical Twilight 6:28 AM WET 6:51 PM WET
Astronomical Twilight 5:59 AM WET 7:20 PM WET
Moon 1:42 AM WET (1/25) 12:45 PM WET (1/25)
Length of Visible Light 11h 25m
Length of Day
10h 33m
Last Quarter, 36% of the Moon is Illuminated
Jan 25
Last Quarter
Jan 30
New
Feb 6
First Quarter
Feb 14
Full
Feb 22
Last Quarter

Hourly Weather History & Observations

Time (WET) Temp. Windchill Dew Point Humidity Pressure Visibility Wind Dir Wind Speed Gust Speed Precip Events Conditions
12:00 AM 45 °F - 22 °F 28%  in 12 mi ENE 3.5 mph - -  
12:00 AM 44.6 °F 43.1 °F 23.0 °F 43% 30.27 in - ENE 3.5 mph - N/A   Clear
1:00 AM 46.4 °F - 24.8 °F 43% 30.27 in - Variable 1.2 mph - N/A   Clear
2:00 AM 42.8 °F - 23.0 °F 46% 30.27 in - Variable 2.3 mph - N/A   Clear
3:00 AM 39 °F - 24 °F 42%  in 12 mi NW 2.3 mph - -  
3:00 AM 39.2 °F - 24.8 °F 56% 30.27 in - Variable 2.3 mph - N/A   Clear
4:00 AM 39.2 °F - 21.2 °F 49% 30.27 in - Variable 1.2 mph - N/A   Clear
5:00 AM 39.2 °F - 23.0 °F 52% 30.24 in - Variable 1.2 mph - N/A   Clear
6:00 AM 36 °F - 22 °F 43%  in 12 mi WNW 1.2 mph - -  
6:00 AM 35.6 °F - 21.2 °F 56% 30.24 in - Variable 1.2 mph - N/A   Clear
7:00 AM 35.6 °F - 21.2 °F 56% 30.27 in - Variable 2.3 mph - N/A   Clear
8:00 AM 33.8 °F - 21.2 °F 60% 30.30 in - Calm Calm - N/A   Clear
9:00 AM 38 °F - 22 °F 39%  in 12 mi Calm Calm - -  
9:00 AM 39.2 °F - 21.2 °F 49% 30.30 in - Calm Calm - N/A   Clear
10:00 AM 44.6 °F - 23.0 °F 43% 30.33 in - Calm Calm - N/A   Clear
11:00 AM 50.0 °F - 23.0 °F 35% 30.33 in - Calm Calm - N/A   Clear
12:00 PM 53 °F - 25 °F 22%  in 12 mi NNW 1.2 mph - -  
12:00 PM 53.6 °F - 24.8 °F 33% 30.30 in - Variable 1.2 mph - N/A   Clear
1:00 PM 57.2 °F - 24.8 °F 29% 30.27 in - Variable 1.2 mph - N/A   Clear
2:00 PM 60.8 °F - 23.0 °F 23% 30.24 in - Variable 1.2 mph - N/A   Clear
3:00 PM 65 °F - 16 °F 7%  in 12 mi Calm Calm - -  
3:00 PM 64.4 °F - 15.8 °F 15% 30.21 in - Calm Calm - N/A   Clear
4:00 PM 66.2 °F - 14.0 °F 13% 30.21 in - Calm Calm - N/A   Clear
5:00 PM 66.2 °F - 14.0 °F 13% 30.21 in - Variable 2.3 mph - N/A   Clear
6:00 PM 65 °F - 15 °F 6%  in 12 mi SE 2.3 mph - -  
6:00 PM 64.4 °F - 14.0 °F 14% 30.21 in - Variable 2.3 mph - N/A   Clear
7:00 PM 60.8 °F - 17.6 °F 19% 30.21 in - Calm Calm - N/A   Clear
8:00 PM 57.2 °F - 17.6 °F 21% 30.21 in - Calm Calm - N/A   Clear
9:00 PM 53 °F - 18 °F 14%  in 12 mi WNW 3.5 mph - -  
9:00 PM 53.6 °F - 19.4 °F 26% 30.24 in - Variable 3.5 mph - N/A   Clear
10:00 PM 51.8 °F - 21.2 °F 30% 30.24 in - Variable 3.5 mph - N/A   Clear
11:00 PM 51.8 °F - 21.2 °F 30% 30.24 in - WSW 4.6 mph - N/A   Clear